Location: Schommer Observatory
(40.5200°N, 74.4500°W)
Time: 06:24:29
(UTC-05:00)

N. Korean satellite - Pass Details

Date: 18 November 2017
Orbit: 460 x 514 km, 97.2° (Epoch: 25 November)

Event Time Altitude Azimuth Distance (km) Brightness Sun altitude
Rises 17:12:22 0° 137° (SE) 2,485 9.9 -6.9°
Reaches altitude 10° 17:14:41 10° 122° (ESE) 1,621 8.9 -7.3°
Maximum altitude 17:17:26 22° 70° (ENE) 1,074 7.7 -7.8°
Drops below altitude 10° 17:20:13 10° 18° (NNE) 1,651 8.9 -8.3°
Sets 17:22:36 0° 3° (N) 2,545 10.0 -8.7°
